[[{"header":{"parameterUnit":"m.s-1","parameterCategory":1,"la1":30.2992,"la2":30.254,"lo1":-89.0895,"lo2":-89.0443,"dy":0.0025,"dx":0.0025,"nx":19,"ny":19,"refTime":"2026-03-07T03:00:00:Z","depth":0,"parameterNumber":2,"parameterNumberName":"U-component_of_WINDS"},"data":[0,0,0,-3.9455,-3.9458,-3.9605,-3.9606,-3.9786,-3.9788,0,0,0,0,0,0,0,0,0,0,0,-3.9405,-3.9406,-3.9455,-3.9458,-3.9605,-3.9606,-3.9786,-3.9788,0,0,0,0,0,0,0,0,0,0,0,-3.9405,-3.9406,-3.9407,-3.9459,-3.9605,-3.9606,-3.9786,-3.9678,0,0,0,0,0,0,0,0,0,0,-3.9536,-3.9484,-3.9406,-3.9407,-3.9459,-3.9605,-3.9606,-3.9672,-3.9684,-3.9716,0,-3.9742,0,-3.9768,-3.9799,-3.98,0,0,0,-3.9462,-3.9474,-3.9519,-3.9408,-3.9461,-3.9605,-3.954,-3.9679,-3.9693,-3.9731,-3.9745,-3.9751,-3.9771,-3.98,-3.9801,-3.9968,-3.9968,0,0,-3.9454,-3.9429,-3.951,-3.9528,-3.9504,-3.9535,-3.9545,-3.9687,-3.97,-3.9745,-3.9756,-3.9774,-3.9802,-3.9803,-3.9967,-3.9968,0,0,0,-3.9428,-3.9423,-3.9465,-3.952,-3.9547,-3.9539,-3.955,-3.9694,-3.9709,-3.9758,-3.9776,-3.9803,-3.9805,-3.9966,-3.9967,-3.9969,0,0,0,-3.9423,-3.9408,-3.9461,-3.9447,-3.9544,-3.9622,-3.9553,-3.9699,-3.9716,-3.9775,-3.9803,-3.9806,-3.9966,-3.9967,-3.9967,-3.9973,0,0,0,-3.9398,-3.9405,-3.9424,-3.9445,-3.9508,-3.962,-3.9645,-3.9704,-3.9727,-3.98,-3.9807,-3.9965,-3.9967,-3.9966,-3.9971,-4.0007,0,0,0,-3.9363,-3.9424,-3.9424,-3.9499,-3.9506,-3.9621,-3.9644,-3.9731,-3.9794,-3.9804,-3.9966,-3.9967,-3.9966,-3.997,-4.0006,-4.0031,-4.004,0,0,-3.9426,-3.9431,-3.9477,-3.9481,-3.9589,-3.9601,-3.971,-3.9792,-3.9823,-3.9918,-3.9922,-3.9968,-3.9971,-4.0007,-4.0105,-4.0111,0,0,0,-3.9488,-3.9521,-3.9556,-3.9614,-3.9678,-3.9734,-3.9802,-3.9833,-3.9915,-3.9866,-3.9994,-3.9996,-4.0018,-4.0031,-4.0037,-4.0057,-3.9973,-3.9973,-3.9973,-3.9538,-3.9575,-3.9654,-3.9708,-3.9765,-3.9836,-3.9885,-3.9939,-3.9959,-3.9989,-4.0016,-4.007,-4.0085,-4.009,-4.011,-4.0035,-4.0035,-4.0035,-4.0035,-3.9631,-3.9682,-3.9709,-3.9795,-3.9834,-3.9907,-3.9978,-3.9991,-4.0064,-4.0053,-4.0074,-4.0056,-4.0096,-4.0116,-4.0036,-4.0036,-4.0036,-4.0036,-4.0035,-3.9664,-3.9695,-3.9732,-3.9821,-3.9886,-3.9941,-4.001,-4.0044,-4.0077,-4.0098,-4.013,-4.013,-4.0132,-4.0112,-4.0112,-4.0112,-4.0112,-4.0112,-4.0112,-3.9683,-3.9725,-3.9779,-3.9854,-3.9896,-3.9956,-4.003,-4.0073,-4.0129,-4.0148,-4.0149,-4.0165,-4.0094,-4.0074,-4.0115,-4.0115,-4.0114,-4.0114,-4.0114,-3.9758,-3.9747,-3.9829,-3.9872,-3.9963,-4.0025,-4.0069,-4.0154,-4.0195,-4.0228,-4.0242,-4.0184,-4.0192,-4.0187,-4.017,-4.0235,-4.0235,-4.0235,-4.0235,-3.9783,-3.9792,-3.9884,-3.9949,-4.0018,-4.0067,-4.016,-4.0219,-4.0278,-4.0306,-4.0302,-4.0284,-4.0279,-4.0289,-4.0283,-4.0267,-4.0355,-4.0355,-4.0355,-3.983,-3.9847,-3.9918,-3.9975,-4.005,-4.0113,-4.0202,-4.0277,-4.0342,-4.036,-4.0328,-4.0323,-4.0294,-4.0283,-4.0295,-4.0285,-4.0257,0,0]},{"header":{"parameterUnit":"m.s-1","parameterCategory":1,"la1":30.2992,"la2":30.254,"lo1":-89.0895,"lo2":-89.0443,"dy":0.0025,"dx":0.0025,"nx":19,"ny":19,"refTime":"2026-03-07T03:00:00:Z","depth":0,"parameterNumber":3,"parameterNumberName":"V-component_of_WINDS"},"data":[0,0,0,2.4136,2.4138,2.4255,2.4256,2.439,2.4391,0,0,0,0,0,0,0,0,0,0,0,2.409,2.4091,2.4135,2.4138,2.4255,2.4256,2.439,2.4391,0,0,0,0,0,0,0,0,0,0,0,2.409,2.4091,2.4091,2.4139,2.4255,2.4256,2.4389,2.4307,0,0,0,0,0,0,0,0,0,0,2.4196,2.4143,2.409,2.4091,2.4139,2.4255,2.4256,2.4303,2.4312,2.433,0,2.4342,0,2.4368,2.4399,2.4399,0,0,0,2.4146,2.4135,2.4177,2.4091,2.414,2.4254,2.4205,2.4308,2.4318,2.4341,2.4344,2.4349,2.4371,2.4399,2.44,2.4476,2.4476,0,0,2.414,2.4105,2.417,2.4183,2.4163,2.4201,2.4208,2.4315,2.4315,2.4344,2.4353,2.4373,2.44,2.4401,2.4476,2.4476,0,0,0,2.4116,2.41,2.414,2.4177,2.4199,2.4204,2.4212,2.431,2.4326,2.4354,2.4374,2.4401,2.4402,2.4476,2.4476,2.4443,0,0,0,2.4112,2.4086,2.4136,2.4116,2.4197,2.4256,2.4205,2.4319,2.4332,2.4374,2.4401,2.4403,2.4476,2.4476,2.4444,2.4432,0,0,0,2.4086,2.4084,2.4097,2.4114,2.4164,2.4255,2.4277,2.4322,2.4344,2.4399,2.4404,2.4476,2.4476,2.4445,2.4434,2.4444,0,0,0,2.4048,2.4063,2.4096,2.4121,2.4162,2.4233,2.4277,2.4331,2.4374,2.4402,2.4476,2.4476,2.4445,2.4435,2.4444,2.4446,2.4443,0,0,2.4048,2.4062,2.408,2.4112,2.4168,2.4218,2.427,2.4342,2.4379,2.4442,2.4444,2.4443,2.4434,2.4444,2.4439,2.4437,0,0,0,2.4068,2.408,2.4103,2.4143,2.4199,2.4248,2.4316,2.4344,2.44,2.4404,2.445,2.4446,2.4453,2.4456,2.4454,2.4463,2.4476,2.4476,2.4476,2.4016,2.4064,2.4098,2.4161,2.42,2.4272,2.4309,2.4359,2.4394,2.4405,2.4423,2.4415,2.4416,2.4415,2.4424,2.4428,2.4428,2.4428,2.4428,2.402,2.4046,2.4097,2.4147,2.4198,2.4242,2.4314,2.4338,2.4387,2.4403,2.4412,2.4426,2.4411,2.4422,2.4426,2.4426,2.4426,2.4426,2.4427,2.3992,2.4013,2.4048,2.4114,2.4161,2.4225,2.4271,2.4316,2.4359,2.4368,2.4394,2.4395,2.4402,2.4377,2.4377,2.4377,2.4377,2.4377,2.4377,2.3949,2.3989,2.4022,2.4087,2.4121,2.4172,2.4248,2.4284,2.4335,2.4364,2.4365,2.4401,2.44,2.4399,2.4377,2.4377,2.4377,2.4377,2.4377,2.3935,2.3947,2.3997,2.4032,2.4114,2.4159,2.4218,2.4287,2.4323,2.4345,2.4381,2.4373,2.439,2.4392,2.4392,2.4369,2.4369,2.4369,2.4369,2.3911,2.3926,2.399,2.4043,2.41,2.416,2.4219,2.428,2.4345,2.4372,2.4382,2.4386,2.4386,2.4403,2.4405,2.4406,2.4387,2.4387,2.4387,2.3907,2.393,2.3969,2.4034,2.4103,2.4162,2.422,2.4281,2.4357,2.4389,2.4394,2.4393,2.44,2.4399,2.4428,2.443,2.4432,0,0]}]]